[[{"header":{"parameterUnit":"m.s-1","parameterCategory":1,"la1":30.2991,"la2":30.254,"lo1":-89.0895,"lo2":-89.0444,"dy":0.0017,"dx":0.0017,"nx":28,"ny":28,"refTime":"2023-07-18T09:00:00:Z","depth":0,"parameterNumber":2,"parameterNumberName":"U-component_of_WINDS"},"data":[0,0,0,0,0,0,0,0,0,0,0,0,0,0,0,0,0,0,0,0,0,0,0,0,0,0,0,0,0,0,0,0,0,0,0,0,0,0,0,0,0,0,0,0,0,0,0,0,0,0,0,0,0,0,0,0,0,0,0.388,0.3881,0,0.4006,0.4008,0.4009,0.4043,0.4042,0.4041,0.404,0.4173,0.4178,0.4182,0,0,0,0,0,0,0,0,0,0,0,0,0,0.3668,0.3672,0.3879,0.3881,0.3883,0.4006,0.4008,0.401,0.4043,0.4042,0.4041,0.404,0.4172,0.4177,0.4182,0,0,0,0,0,0,0,0,0,0,0,0,0,0.3774,0.3673,0.3879,0.3914,0.3918,0.4006,0.4008,0.401,0.4043,0.4042,0.4041,0.4039,0.417,0.4176,0.4183,0.4246,0,0,0.4202,0.4205,0,0,0,0,0,0,0,0,0.3768,0.3782,0.3907,0.3912,0.3917,0.4007,0.3982,0.4089,0.4043,0.3996,0.404,0.4039,0.4119,0.413,0.4156,0.4252,0.4258,0.4203,0.4207,0.421,0.4211,0,0,0,0,0,0,0,0.3761,0.3777,0.393,0.3909,0.3915,0.3924,0.3938,0.4003,0.4063,0.4,0.4002,0.4017,0.4122,0.415,0.416,0.426,0.4203,0.4208,0.4212,0.4215,0.4414,0.4415,0,0,0,0,0,0,0.3747,0.377,0.3926,0.3934,0.3838,0.3929,0.3944,0.398,0.4062,0.4073,0.4018,0.4018,0.414,0.4152,0.4164,0.4244,0.421,0.4216,0.4219,0.4413,0.4414,0.4416,0,0,0,0,0,0,0.3742,0.3761,0.3921,0.3853,0.3874,0.3934,0.3973,0.3983,0.4011,0.4075,0.4087,0.4035,0.4139,0.4155,0.4225,0.4249,0.4218,0.4224,0.4411,0.4413,0.4415,0.4403,0,0,0,0,0,0,0.3736,0.3759,0.3783,0.3853,0.3877,0.3978,0.3975,0.3986,0.4022,0.4023,0.4095,0.4106,0.414,0.4215,0.4232,0.4257,0.4229,0.4409,0.4412,0.4414,0.4402,0.4405,0.4407,0,0,0,0,0,0.3729,0.3775,0.3784,0.3802,0.3908,0.398,0.3994,0.403,0.4023,0.4048,0.409,0.4104,0.4244,0.4222,0.4241,0.4269,0.4408,0.4411,0.4414,0.4401,0.4404,0.4407,0,0,0,0,0,0,0.3707,0.3785,0.3795,0.3865,0.3915,0.3985,0.4018,0.4033,0.4087,0.4086,0.413,0.4146,0.4213,0.4248,0.4223,0.4334,0.4326,0.4333,0.4309,0.4313,0.4316,0.4306,0.4235,0,0,0,0,0,0.371,0.376,0.3826,0.3882,0.3906,0.3957,0.399,0.4014,0.4068,0.4089,0.4136,0.4189,0.4245,0.4281,0.4336,0.4407,0.4423,0.4435,0.4438,0.444,0.4446,0.4486,0.4493,0.4427,0.4427,0.4427,0,0,0.3717,0.3766,0.3796,0.3879,0.392,0.3972,0.3975,0.403,0.407,0.4098,0.4167,0.4203,0.4265,0.4335,0.4369,0.4366,0.4467,0.4444,0.4445,0.445,0.449,0.4497,0.4502,0.4429,0.4428,0.4428,0,0,0.3758,0.3799,0.385,0.3892,0.3954,0.3988,0.4,0.4067,0.4092,0.4161,0.4184,0.4232,0.4327,0.437,0.4405,0.4461,0.4476,0.4478,0.4492,0.4532,0.4537,0.4542,0.4562,0.4569,0.4483,0.4483,0.4483,0,0.3759,0.3838,0.3875,0.3929,0.3965,0.3992,0.4044,0.4083,0.4161,0.4186,0.4181,0.4302,0.4345,0.4427,0.444,0.4467,0.4483,0.447,0.4533,0.4538,0.4543,0.4564,0.4571,0.4483,0.4483,0.4483,0.4483,0,0.3837,0.3891,0.3925,0.3998,0.4038,0.4091,0.4137,0.4173,0.4194,0.4228,0.4298,0.4352,0.4418,0.4439,0.446,0.4524,0.452,0.4524,0.4516,0.4549,0.4569,0.4577,0.4483,0.4483,0.4483,0.4483,0,0,0.3868,0.396,0.3972,0.4006,0.4077,0.412,0.4174,0.4238,0.4268,0.4321,0.4369,0.4448,0.4452,0.4491,0.4517,0.4551,0.4593,0.4551,0.4553,0.4558,0.4668,0.4665,0.4673,0.4603,0.4605,0.4606,0.4663,0,0.3918,0.4015,0.405,0.413,0.4181,0.4207,0.4255,0.4304,0.4337,0.4386,0.4424,0.448,0.448,0.4504,0.4539,0.4581,0.4616,0.4577,0.4649,0.4651,0.4633,0.4684,0.4681,0.4732,0.4671,0.4672,0.4673,0,0.3989,0.4041,0.4126,0.4191,0.4213,0.4255,0.4317,0.4363,0.4419,0.4441,0.4484,0.4508,0.4567,0.4555,0.4638,0.461,0.4642,0.4667,0.467,0.4679,0.4664,0.4694,0.4749,0.4756,0.4686,0.4685,0.4684,0,0.4003,0.4095,0.4158,0.4186,0.4263,0.4292,0.4325,0.438,0.4416,0.447,0.4494,0.4555,0.4588,0.4635,0.4675,0.4662,0.4754,0.4745,0.4775,0.4774,0.4794,0.4792,0.4854,0.4813,0.4813,0.4812,0.4812,0,0.4056,0.4107,0.4166,0.4204,0.4263,0.4302,0.436,0.4395,0.4444,0.449,0.4517,0.4561,0.461,0.466,0.4692,0.4756,0.4771,0.4791,0.4799,0.4789,0.4786,0.4811,0.4809,0.4814,0.4814,0.4814,0.4813,0,0.4082,0.4124,0.4194,0.426,0.4278,0.4318,0.4376,0.4415,0.4449,0.4508,0.4524,0.4579,0.4639,0.4683,0.4762,0.4783,0.4852,0.4859,0.4832,0.4837,0.4864,0.4861,0.4945,0.4958,0.4906,0.4907,0.4907,0,0.4113,0.4153,0.4223,0.4256,0.4289,0.4341,0.4378,0.4419,0.4456,0.4523,0.4554,0.4616,0.4668,0.4764,0.4812,0.4872,0.4882,0.4907,0.4891,0.488,0.4883,0.4881,0.4885,0.491,0.491,0.491,0.491,0,0.4164,0.4182,0.4233,0.4292,0.4335,0.4383,0.4432,0.4457,0.4507,0.4548,0.4609,0.4649,0.4729,0.4791,0.4856,0.4892,0.491,0.4915,0.4925,0.4916,0.4899,0.4909,0.4839,0.4913,0.4913,0.4913,0.4912,0.4912,0.4194,0.4231,0.4286,0.4342,0.4383,0.4428,0.4468,0.4507,0.4558,0.4626,0.4647,0.4711,0.4767,0.4856,0.4892,0.4944,0.4943,0.4958,0.4962,0.4965,0.4964,0.489,0.4956,0.4956,0.4956,0.4956,0.4956,0,0.4247,0.4283,0.4334,0.4401,0.4446,0.4457,0.4512,0.4549,0.4604,0.4654,0.4705,0.4776,0.4836,0.4888,0.495,0.4982,0.4992,0.4997,0.4995,0.5004,0.4961,0.4946,0.4988,0.4988,0.4988,0.4988,0.4988,0.4988,0.4279,0.4342,0.4367,0.445,0.4487,0.4549,0.4579,0.4621,0.4661,0.4739,0.4788,0.4821,0.4873,0.4939,0.4995,0.5009,0.5031,0.5034,0.505,0.501,0.5006,0.5003,0.4989,0.5039,0.5039,0.5088,0.5089,0.5089]},{"header":{"parameterUnit":"m.s-1","parameterCategory":1,"la1":30.2991,"la2":30.254,"lo1":-89.0895,"lo2":-89.0444,"dy":0.0017,"dx":0.0017,"nx":28,"ny":28,"refTime":"2023-07-18T09:00:00:Z","depth":0,"parameterNumber":3,"parameterNumberName":"V-component_of_WINDS"},"data":[0,0,0,0,0,0,0,0,0,0,0,0,0,0,0,0,0,0,0,0,0,0,0,0,0,0,0,0,0,0,0,0,0,0,0,0,0,0,0,0,0,0,0,0,0,0,0,0,0,0,0,0,0,0,0,0,0,0,0.4706,0.4704,0,0.455,0.4548,0.4546,0.4441,0.444,0.4439,0.4439,0.4279,0.4275,0.4272,0,0,0,0,0,0,0,0,0,0,0,0,0,0.4911,0.4908,0.4706,0.4704,0.4702,0.455,0.4548,0.4546,0.4441,0.444,0.4439,0.4438,0.428,0.4276,0.4271,0,0,0,0,0,0,0,0,0,0,0,0,0,0.4795,0.4907,0.4706,0.4631,0.4623,0.4551,0.4548,0.4545,0.4441,0.444,0.4439,0.4438,0.4281,0.4276,0.4271,0.426,0,0,0.4254,0.4252,0,0,0,0,0,0,0,0,0.4802,0.4788,0.4644,0.4636,0.4627,0.4514,0.4561,0.445,0.4442,0.451,0.4439,0.4437,0.4358,0.4346,0.4319,0.4253,0.4246,0.4254,0.4251,0.4248,0.4247,0,0,0,0,0,0,0,0.481,0.4794,0.4644,0.4642,0.4632,0.4605,0.4587,0.454,0.4442,0.4504,0.4496,0.4479,0.4353,0.4325,0.4315,0.4243,0.4254,0.4249,0.4246,0.4244,0.4158,0.4159,0,0,0,0,0,0,0.483,0.4801,0.4649,0.4639,0.4713,0.4602,0.4582,0.4551,0.4442,0.4425,0.448,0.4475,0.4334,0.4321,0.4309,0.4288,0.4248,0.4243,0.424,0.4157,0.4158,0.416,0,0,0,0,0,0,0.4835,0.4817,0.4655,0.4718,0.4695,0.46,0.4566,0.4549,0.452,0.4424,0.4406,0.447,0.4333,0.4316,0.4273,0.4281,0.4241,0.4236,0.4156,0.4158,0.4159,0.4247,0,0,0,0,0,0,0.4841,0.482,0.4815,0.4719,0.4692,0.4623,0.4566,0.4546,0.4511,0.4503,0.4409,0.4393,0.4331,0.4281,0.4267,0.4273,0.4232,0.4155,0.4157,0.4159,0.4243,0.4251,0.4258,0,0,0,0,0,0.4849,0.4846,0.4816,0.4798,0.4685,0.4623,0.4608,0.4537,0.4513,0.4507,0.4445,0.4396,0.4282,0.4278,0.4261,0.4265,0.4154,0.4156,0.4158,0.4239,0.425,0.4258,0,0,0,0,0,0,0.4947,0.4833,0.4797,0.4763,0.4704,0.4606,0.4596,0.455,0.4496,0.449,0.4404,0.4383,0.4348,0.4302,0.4299,0.4248,0.4212,0.4211,0.4279,0.4288,0.4296,0.4307,0.4228,0,0,0,0,0,0.4964,0.4924,0.4826,0.4806,0.4778,0.4693,0.4663,0.4613,0.4548,0.4522,0.4457,0.4395,0.4345,0.4314,0.4263,0.4236,0.4213,0.423,0.4238,0.4245,0.4245,0.4225,0.4231,0.4166,0.4166,0.4166,0,0,0.5,0.4933,0.4913,0.4824,0.4772,0.4732,0.4672,0.4632,0.4601,0.4516,0.447,0.4421,0.4346,0.431,0.4291,0.4271,0.4258,0.4247,0.4254,0.4249,0.4228,0.4234,0.424,0.4168,0.4168,0.4167,0,0,0.5045,0.4991,0.4967,0.4916,0.4838,0.4781,0.4775,0.4684,0.4647,0.46,0.4535,0.4497,0.4413,0.4362,0.4325,0.435,0.4302,0.4335,0.4375,0.4358,0.4363,0.4367,0.4374,0.4378,0.4336,0.4336,0.4336,0,0.51,0.5037,0.4961,0.4924,0.4887,0.4808,0.4782,0.4736,0.4646,0.4621,0.46,0.4492,0.4436,0.4387,0.4393,0.4366,0.4356,0.4345,0.4368,0.4371,0.4374,0.438,0.4384,0.434,0.434,0.4339,0.4339,0,0.5107,0.5064,0.5055,0.4969,0.493,0.49,0.4818,0.4788,0.4742,0.4687,0.4639,0.4569,0.4502,0.4487,0.4441,0.443,0.442,0.4385,0.4347,0.4386,0.439,0.4392,0.4347,0.4345,0.4344,0.4343,0,0,0.5209,0.5081,0.5079,0.5038,0.4946,0.4911,0.4876,0.481,0.4786,0.4726,0.4694,0.4624,0.4591,0.4549,0.4497,0.4481,0.4503,0.4447,0.4444,0.4459,0.4486,0.4513,0.4517,0.4472,0.4472,0.4472,0.4492,0,0.5239,0.5173,0.5104,0.5062,0.5021,0.4945,0.4914,0.4854,0.4802,0.4759,0.47,0.4652,0.4612,0.4586,0.4567,0.4505,0.4508,0.4503,0.444,0.4439,0.4461,0.4519,0.4547,0.4569,0.4493,0.4493,0.4493,0,0.5266,0.5209,0.5163,0.5073,0.5053,0.5028,0.4961,0.4921,0.4851,0.4813,0.4767,0.4711,0.467,0.4637,0.4579,0.4577,0.4547,0.4513,0.4512,0.4503,0.4468,0.451,0.4575,0.4578,0.4496,0.4495,0.4495,0,0.5344,0.5256,0.5216,0.5184,0.5079,0.5062,0.5017,0.4946,0.491,0.4852,0.4827,0.4766,0.4731,0.4684,0.4613,0.4596,0.4562,0.4523,0.4529,0.4531,0.4524,0.4526,0.4584,0.4507,0.4507,0.4507,0.4507,0,0.5384,0.5359,0.525,0.5226,0.5195,0.5115,0.5086,0.5034,0.4971,0.4935,0.4865,0.4833,0.4741,0.4697,0.4641,0.4601,0.4586,0.4554,0.4539,0.456,0.4564,0.4539,0.4535,0.4508,0.4508,0.4508,0.4508,0,0.5466,0.5392,0.5344,0.5248,0.5223,0.5204,0.5121,0.5094,0.5038,0.4993,0.4978,0.4889,0.4834,0.4758,0.468,0.4642,0.4609,0.4586,0.4633,0.4624,0.4633,0.4633,0.4676,0.4677,0.4602,0.4603,0.4603,0,0.5496,0.5475,0.5376,0.5347,0.5304,0.5258,0.5221,0.5141,0.5105,0.5023,0.5006,0.4946,0.4893,0.4808,0.4736,0.4676,0.465,0.467,0.4641,0.4661,0.4649,0.4651,0.4648,0.4677,0.4678,0.4679,0.468,0,0.5557,0.5521,0.5471,0.5408,0.5366,0.5312,0.5255,0.5235,0.5142,0.5106,0.5048,0.5008,0.4927,0.4868,0.4797,0.475,0.4699,0.4689,0.4687,0.4708,0.4735,0.4719,0.4651,0.4689,0.4688,0.4687,0.4687,0.4686,0.5613,0.559,0.5516,0.5462,0.5411,0.5359,0.5329,0.5268,0.5219,0.5147,0.5103,0.5047,0.4976,0.4876,0.4831,0.4786,0.4766,0.4763,0.4762,0.4763,0.4769,0.4743,0.4773,0.4773,0.4773,0.4772,0.4772,0,0.567,0.5618,0.5569,0.5491,0.5449,0.5405,0.5339,0.5306,0.5258,0.5196,0.5145,0.5079,0.502,0.4944,0.488,0.4858,0.4833,0.4844,0.4844,0.4834,0.4791,0.4799,0.4865,0.4865,0.4865,0.4865,0.4865,0.4865,0.5694,0.5652,0.5608,0.5539,0.5488,0.5433,0.5399,0.535,0.53,0.5229,0.518,0.5131,0.5062,0.4992,0.4937,0.4915,0.4895,0.4913,0.4885,0.4846,0.4837,0.4829,0.4836,0.4909,0.4909,0.4931,0.4931,0.4931]}]]